Weather History for KPWM - February, 2013

Change the Weather History Date:

Wednesday, February 27, 2013

  Actual Average Record
Temperature  
Mean Temperature 35 °F 28 °F  
Max Temperature 38 °F 37 °F 57 °F (1976)
Min Temperature 31 °F 20 °F -14 °F (1950)
Degree Days  
Heating Degree Days 30 37  
Month to date heating degree days 998 1071  
Since 1 July heating degree days 4569 5007  
Cooling Degree Days 0 0  
Month to date cooling degree days 0 0  
Year to date cooling degree days 0 0  
Moisture  
Dew Point 32 °F    
Average Humidity 89    
Maximum Humidity 96    
Minimum Humidity 82    
Precipitation  
Precipitation 1.09 in 0.13 in 1.92 in (1912)
Month to date precipitation 5.89 3.12  
Year to date precipitation 7.25 6.50  
Snow  
Snow 2.90 in 0.50 in 13.60 in (1912)
Month to date snowfall 49.5 11.7  
Since 1 July snowfall 84.5 46.0  
Snow Depth 7.00 in    
Sea Level Pressure  
Sea Level Pressure 29.99 in    
Wind  
Wind Speed 16 mph (ENE)    
Max Wind Speed 30 mph    
Max Gust Speed 36 mph    
Visibility 4 miles    
Events Fog , Rain , Snow    
T = Trace of Precipitation, MM = Missing Value Source: NWS Daily Summary

Daily Weather History Graph

Daily Weather History Graph

Search for Another Location

Airport or City:

Trip Planner

Search our weather history database for the weather conditions in past years. The results will help you decide how hot, cold, wet, or windy it might be!

Date:

Astronomy

Feb. 27, 2013 Rise Set
Actual Time 6:20 AM EST 5:27 PM EST
Civil Twilight 5:51 AM EST 5:56 PM EST
Nautical Twilight 5:18 AM EST 6:29 PM EST
Astronomical Twilight 4:45 AM EST 7:03 PM EST
Moon 7:51 PM EST (2/27) 6:49 AM EST (2/27)
Length of Visible Light 12h 04m
Length of Day
11h 06m
Waning Gibbous, 96% of the Moon is Illuminated
Feb 27
Waning Gibbous
Mar 4
Last Quarter
Mar 11
New
Mar 19
First Quarter
Mar 27
Full

Hourly Weather History & Observations

Time (EST) Temp. Windchill Dew Point Humidity Pressure Visibility Wind Dir Wind Speed Gust Speed Precip Events Conditions
12:51 AM 34.0 °F 28.0 °F 30.0 °F 85% 30.23 in 10.0 mi NE 6.9 mph - N/A   Clear
1:51 AM 35.1 °F 30.1 °F 30.0 °F 82% 30.22 in 10.0 mi ENE 5.8 mph - N/A   Clear
2:51 AM 35.1 °F 27.9 °F 30.0 °F 82% 30.18 in 10.0 mi NE 9.2 mph - N/A   Mostly Cloudy
3:36 AM 35.1 °F 27.9 °F 30.0 °F 82% 30.17 in 10.0 mi NNE 9.2 mph - N/A   Overcast
3:51 AM 35.1 °F 28.6 °F 30.0 °F 82% 30.18 in 10.0 mi NE 8.1 mph - N/A   Overcast
4:51 AM 34.0 °F 28.0 °F 30.0 °F 85% 30.17 in 4.0 mi NNE 6.9 mph - 0.00 in Snow Light Snow
5:00 AM 34.0 °F 28.0 °F 30.9 °F 89% 30.17 in 4.0 mi NNE 6.9 mph - 0.00 in Snow Light Snow
5:51 AM 34.0 °F 25.5 °F 30.9 °F 89% 30.14 in 3.0 mi ENE 11.5 mph - 0.01 in Snow Light Snow
6:51 AM 34.0 °F 25.5 °F 32.0 °F 92% 30.12 in 7.0 mi NE 11.5 mph - 0.01 in Rain , Snow Light Rain
7:51 AM 35.1 °F 25.9 °F 32.0 °F 89% 30.10 in 10.0 mi NE 13.8 mph - 0.00 in Rain , Snow Light Rain
8:51 AM 37.9 °F 28.2 °F 34.0 °F 86% 30.09 in 7.0 mi East 18.4 mph 25.3 mph 0.00 in Rain , Snow Light Rain
9:51 AM 37.9 °F 27.9 °F 33.1 °F 83% 30.05 in 10.0 mi East 19.6 mph - 0.00 in   Overcast
10:51 AM 37.9 °F 27.3 °F 33.1 °F 83% 30.03 in 7.0 mi East 21.9 mph 29.9 mph 0.00 in Rain Light Rain
11:51 AM 37.9 °F 27.9 °F 33.1 °F 83% 30.00 in 10.0 mi East 19.6 mph 27.6 mph 0.02 in Rain Light Rain
12:24 PM 37.9 °F 27.3 °F 32.0 °F 79% 29.97 in 3.0 mi East 21.9 mph 35.7 mph 0.00 in Rain Light Rain
12:51 PM 37.0 °F 25.9 °F 33.1 °F 86% 29.97 in 3.0 mi East 23.0 mph 34.5 mph 0.02 in Rain Light Rain
1:37 PM 36.0 °F 24.7 °F 33.1 °F 89% 29.94 in 3.0 mi East 21.9 mph 33.4 mph 0.03 in Rain Light Rain
1:48 PM 35.6 °F 23.7 °F 32.0 °F 87% 29.94 in 1.5 mi East 24.2 mph 34.5 mph 0.05 in Rain , Snow Light Rain
1:51 PM 35.1 °F 22.5 °F 32.0 °F 89% 29.94 in 1.5 mi East 26.5 mph 34.5 mph 0.05 in Rain , Snow Light Rain
2:09 PM 35.1 °F 23.0 °F 32.0 °F 89% 29.93 in 1.5 mi East 24.2 mph 32.2 mph 0.02 in Rain , Snow Light Rain
2:26 PM 34.0 °F 22.1 °F 32.0 °F 92% 29.92 in 0.8 mi East 21.9 mph - 0.03 in Rain , Snow Light Rain
2:51 PM 34.0 °F 21.8 °F 32.0 °F 92% 29.92 in 0.5 mi East 23.0 mph 33.4 mph 0.07 in Fog , Snow Snow
3:51 PM 33.1 °F 21.5 °F 32.0 °F 96% 29.90 in 0.5 mi ENE 19.6 mph 33.4 mph 0.10 in Fog , Snow Snow
4:51 PM 33.1 °F 20.9 °F 32.0 °F 96% 29.88 in 0.5 mi East 21.9 mph 33.4 mph 0.08 in Fog , Snow Light Snow
5:51 PM 33.1 °F 21.2 °F 30.9 °F 92% 29.87 in 0.5 mi ENE 20.7 mph 32.2 mph 0.09 in Fog , Snow Light Snow
6:51 PM 33.1 °F 20.1 °F 30.9 °F 92% 29.81 in 0.5 mi ENE 25.3 mph 36.8 mph 0.08 in Fog , Snow Snow
7:51 PM 33.1 °F 21.9 °F 30.9 °F 92% 29.79 in 0.8 mi ENE 18.4 mph 25.3 mph 0.15 in Snow Light Snow
8:51 PM 33.1 °F 23.4 °F 32.0 °F 96% 29.75 in 0.8 mi NE 13.8 mph - 0.14 in Snow Light Snow
9:51 PM 33.1 °F 23.9 °F 32.0 °F 96% 29.73 in 0.8 mi NE 12.7 mph - 0.14 in Snow Light Snow
10:51 PM 34.0 °F 22.4 °F 32.0 °F 92% 29.68 in 1.5 mi ENE 20.7 mph 27.6 mph 0.08 in Rain Light Rain
11:51 PM 34.0 °F 24.2 °F 33.1 °F 96% 29.64 in 3.0 mi NE 15.0 mph - 0.04 in   Overcast